SCP
0 0 0 0 0 0 0 0 0 0 0 0 0 0 0 0 0 0 0 0 0 0 0 0 0 0 0 0 0 0 0 0 0 0 0 0 0 0 0 0 0 0 0 0 0 0 0 0 0
0 0 0 0 0 0 0 0 0 0 0 0 0 0 0 0 0 0 0 0 0 0 0 0 0 0 0 0 0 0 0 0 0 0 0 0 0 0 0 0 0 0 0 0 0 0 0 0 0
0 0 0 0 0 0 0 0 0 0 0 0 0 0 0 0 0 0 0 0 0 0 0 0 0 0 0 0 0 0 0 0 0 0 0 0 0 0 0 0 0 0 0 0 0 0 0 0 0
0 0 0 0 0 0 0 0 0 0 0 0 0 0 0 0 0 0 0 0 0 0 0 0 0 0 0 0 0 0 0 0 0 0 0 0 0 0 0 0 0 0 0 0 0 0 0 0 0
0 0 0 0 0 0 0 0 0 0 0 0 0 0 0 0 0 0 0 0 0 0 0 0 0 0 0 0 0 0 0 0 0 0 0 0 0 0 0 0 0 0 0 0 0 0 0 0 0
0 0 0 0 0 0 0 0 0 0 0 0 0 0 0 0 0 0 0 0 0 0 0 0 0 0 0 0 0 0 0 0 0 0 0 0 0 0 0 0 0 0 0 0 0 0 0 0 0
0 0 0 0 0 0 0 0 0 0 0 0 0 0 0 0 0 0 0 0 0 0 0 0 0 0 0 0 0 0 0 0 0 0 0 0 0 0 0 0 0 0 0 0 0 0 0 0 0
0 0 0 0 0 0 0 0 0 0 0 0 0 0 0 0 0 0 0 0 0 0 0 0 0 0 0 0 0 0 0 0 0 0 0 0 0 0 0 0 0 0 0 0 0 0 0 0 0
0 0 0 0 0 0 0 0 0 0 0 0 0 0 0 0 0 0 0 0 0 0 0 0 0 0 0 0 0 0 0 0 0 0 0 0 0 0 0 0 0 0 0 0 0 0 0 0 0
0 0 0 0 0 0 0 0 0 0 0 0 0 0 0 0 0 0 0 0 0 0 0 0 0 0 0 0 0 0 0 0 0 0 0 0 0 0 0 0 0 0 0 0 0 0 0 0 0
0 0 0 0 0 0 0 0 0 0 0 0 0 0 0 0 0 0 0 0 0 0 0 0 0 0 0 0 0 0 0 0 0 0 0 0 0 0 0 0 0 0 0 0 0 0 0 0 0
0 0 0 0 0 0 0 0 0 0 0 0 0 0 0 0 0 0 0 0 0 0 0 0 0 0 0 0 0 0 0 0 0 0 0 0 0 0 0 0 0 0 0 0 0 0 0 0 0
0 0 0 0 0 0 0 0 0 0 0 0 0 0 0 0 0 0 0 0 0 0 0 0 0 0 0 0 0 0 0 0 0 0 0 0 0 0 0 0 0 0 0 0 0 0 0 0 0
0 0 0 0 0 0 0 0 0 0 0 0 0 0 0 0 0 0 0 0 0 0 0 0 0 0 0 0 0 0 0 0 0 0 0 0 0 0 0 0 0 0 0 0 0 0 0 0 0
0 0 0 0 0 0 0 0 0 0 0 0 0 0 0 0 0 0 0 0 0 0 0 0 0 0 0 0 0 0 0 0 0 0 0 0 0 0 0 0 0 0 0 0 0 0 0 0 0
0 0 0 0 0 0 0 0 0 0 0 0 0 0 0 0 0 0 0 0 0 0 0 0 0 0 0 0 0 0 0 0 0 0 0 0 0 0 0 0 0 0 0 0 0 0 0 0 0
0 0 0 0 0 0 0 0 0 0 0 0 0 0 0 0 0 0 0 0 0 0 0 0 0 0 0 0 0 0 0 0 0 0 0 0 0 0 0 0 0 0 0 0 0 0 0 0 0
0 0 0 0 0 0 0 0 0 0 0 0 0 0 0 0 0 0 0 0 0 0 0 0 0 0 0 0 0 0 0 0 0 0 0 0 0 0 0 0 0 0 0 0 0 0 0 0 0
0 0 0 0 0 0 0 0 0 0 0 0 0 0 0 0 0 0 0 0 0 0 0 0 0 0 0 0 0 0 0 0 0 0 0 0 0 0 0 0 0 0 0 0 0 0 0 0 0
0 0 0 0 0 0 0 0 0 0 0 0 0 0 0 0 0 0 0 0 0 0 0 0 0 0 0 0 0 0 0 0 0 0 0 0 0 0 0 0 0 0 0 0 0 0 0 0 0
0 0 0 0 0 0 0 0 0 0 0 0 0 0 0 0 0 0 0 0 0 0 0 0 0 0 0 0 0 0 0 0 0 0 0 0 0 0 0 0 0 0 0 0 0 0 0 0 0
0 0 0 0 0 0 0 0 0 0 0 0 0 0 0 0 0 0 0 0 0 0 0 0 0 0 0 0 0 0 0 0 0 0 0 0 0 0 0 0 0 0 0 0 0 0 0 0 0
0 0 0 0 0 0 0 0 0 0 0 0 0 0 0 0 0 0 0 0 0 0 0 0 0 0 0 0 0 0 0 0 0 0 0 0 0 0 0 0 0 0 0 0 0 0 0 0 0
0 0 0 0 0 0 0 0 0 0 0 0 0 0 0 0 0 0 0 0 0 0 0 0 0 0 0 0 0 0 0 0 0 0 0 0 0 0 0 0 0 0 0 0 0 0 0 0 0
0 0 0 0 0 0 0 0 0 0 0 0 0 0 0 0 0 0 0 0 0 0 0 0 0 0 0 0 0 0 0 0 0 0 0 0 0 0 0 0 0 0 0 0 0 0 0 0 0
0 0 0 0 0 0 0 0 0 0 0 0 0 0 0 0 0 0 0 0 0 0 0 0 0 0 0 0 0 0 0 0 0 0 0 0 0 0 0 0 0 0 0 0 0 0 0 0 0
0 0 0 0 0 0 0 0 0 0 0 0 0 0 0 0 0 0 0 0 0 0 0 0 0 0 0 0 0 0 0 0 0 0 0 0 0 0 0 0 0 -0 -0 0 0 0 0 0 0
0 0 0 0 0 0 0 0 0 0 0 0 0 0 0 0 0 0 0 0 0 0 0 0 0 0 0 0 0 0 0 0 0 0 0 0 0 0 0 0 0 0 0 -0 -0 -0 0 -0 0
0 0 0 0 0 0 0 0 0 0 0 0 0 0 0 0 0 0 0 0 0 0 0 0 0 0 0 0 0 0 0 0 0 0 0 0 0 0 0 0 0 0 0 0 0 0 0 0 0
0 0 0 0 0 0 0 0 0 0 0 0 0 0 0 0 0 0 0 0 0 0 0 0 0 0 0 0 0 0 0 0 0 0 0 0 0 0 0 0 0 0 0 0 0 0 0 0 0
Wind_Speed
11 5 2 4 6 5 1 2 1 2 2 1 1 3 5 4 2 1 1 4 5 6 6 7 8 9 10 9 9 9 9 9 10 10 10 10 10 10 10 9 10 9 10 10 10 10 10 9 9
5 3 4 5 5 2 2 3 2 1 1 1 3 3 4 3 2 3 2 2 6 7 5 6 8 9 10 9 9 9 9 9 9 10 10 10 9 9 9 9 9 9 9 9 9 9 9 8 8
4 3 5 5 4 3 2 2 2 2 1 2 3 3 3 1 1 2 1 4 6 6 4 5 8 9 10 9 8 8 8 8 8 9 9 9 9 9 9 8 8 8 8 8 8 8 7 7 7
3 5 6 5 2 3 2 2 2 2 2 3 3 3 2 2 0 1 4 6 7 5 5 5 8 9 9 8 8 7 8 8 8 8 8 8 8 8 8 8 7 7 7 7 6 6 6 5 5
4 4 4 2 2 2 2 3 1 1 2 2 3 3 2 4 3 5 7 7 7 5 4 5 7 7 8 8 7 7 7 8 8 7 7 7 7 7 7 6 6 5 6 5 5 4 4 4 4
5 4 4 2 3 2 2 2 1 2 1 2 3 3 1 3 4 5 6 6 5 6 5 4 6 6 6 6 6 6 6 6 7 6 6 6 6 6 5 5 4 4 4 4 4 4 3 2 2
4 4 3 3 2 2 3 3 2 1 2 1 1 3 1 2 2 4 5 6 5 5 5 4 3 4 5 4 4 5 5 4 5 6 6 5 5 5 4 3 3 2 2 3 3 2 2 2 1
3 4 2 2 2 1 3 3 2 2 1 2 3 3 1 1 3 6 6 6 5 4 4 3 3 3 3 2 4 4 4 4 4 4 5 4 4 4 3 2 2 1 2 2 2 1 0 1 2
3 4 3 3 3 2 2 3 4 3 3 4 4 3 1 5 6 6 5 4 4 3 3 2 3 2 2 2 2 3 3 3 3 3 4 3 2 2 1 1 2 1 1 1 1 1 1 1 2
4 3 3 2 2 1 1 2 2 4 5 4 6 7 6 7 6 6 4 4 3 3 2 2 2 2 2 2 2 2 2 2 2 1 2 1 1 1 1 1 2 1 1 1 2 2 1 1 1
3 4 1 0 1 1 2 3 3 3 3 2 2 2 4 5 5 4 3 3 2 2 2 1 2 2 2 1 2 1 1 1 1 2 1 1 1 1 1 0 1 1 1 1 1 1 1 1 1
3 1 1 1 2 3 2 2 3 4 1 3 1 4 5 5 3 2 2 1 1 1 1 0 1 1 1 1 1 2 1 1 1 2 2 1 1 1 1 1 1 1 1 1 1 1 2 2 3
2 1 2 3 4 4 4 3 2 3 4 4 6 7 5 3 2 1 2 1 1 1 1 1 1 1 1 1 1 1 2 2 2 1 2 2 2 2 2 2 2 2 2 2 2 2 2 3 3
2 2 3 3 3 4 4 3 3 4 4 6 7 6 4 3 2 3 3 2 2 1 1 1 1 2 1 2 1 1 2 2 2 1 1 2 2 2 3 3 2 3 3 3 3 3 3 3 3
2 3 4 4 3 2 3 5 4 4 4 6 5 4 4 4 5 4 3 2 2 2 2 1 1 1 1 2 2 1 1 1 1 1 1 1 1 2 2 3 3 3 3 3 3 3 3 3 3
3 2 1 3 3 3 3 1 5 5 5 5 4 4 5 5 4 4 4 4 3 2 2 1 1 1 1 1 1 0 0 1 0 0 0 1 1 1 1 2 3 3 2 2 3 3 2 3 3
2 2 2 2 3 3 3 0 4 5 5 4 4 4 4 5 6 5 5 4 4 3 2 2 2 2 1 1 0 0 1 0 0 0 1 1 1 1 1 1 2 2 2 2 2 2 2 3 4
2 2 2 2 2 4 3 0 4 4 4 3 3 3 4 5 5 5 5 5 5 5 4 4 3 3 2 2 2 1 1 1 1 1 2 2 1 1 1 1 2 1 2 2 2 3 3 3 3
3 4 2 1 0 2 1 1 3 4 4 4 3 3 4 4 4 5 5 5 6 6 6 5 5 4 3 2 1 1 1 2 2 2 3 2 2 2 1 2 2 2 2 2 2 2 3 3 2
3 3 2 1 1 1 1 2 2 2 1 1 2 3 3 4 6 7 7 6 6 6 5 5 5 4 3 2 1 1 1 1 2 3 3 4 3 3 2 2 2 2 2 2 3 2 2 2 1
1 3 2 1 1 1 1 3 2 2 1 2 2 2 3 3 4 5 6 6 6 6 5 4 5 5 4 3 2 2 2 1 2 4 3 5 4 4 3 3 2 2 1 2 2 2 3 3 3
1 2 2 2 2 1 1 2 3 2 2 2 2 3 3 4 4 5 6 6 6 5 4 4 4 4 4 3 4 4 2 2 2 2 3 4 5 5 5 5 4 3 2 2 3 2 3 3 3
1 1 1 1 2 1 1 1 5 2 2 3 1 2 3 3 3 5 5 5 5 5 5 4 4 5 5 4 3 3 2 2 2 2 3 4 4 5 5 5 5 4 3 3 3 2 3 3 3
1 2 3 3 2 1 2 3 5 3 4 2 1 1 2 3 4 4 4 5 5 6 5 5 5 6 5 5 4 3 3 3 4 4 4 4 4 4 6 5 5 5 5 5 4 3 3 3 3
2 3 3 3 1 4 2 3 6 4 3 3 2 1 1 2 3 4 5 5 6 6 6 6 6 6 5 5 5 4 3 3 3 3 4 4 4 4 6 5 5 5 5 5 5 4 4 3 3
0 2 4 3 3 3 1 5 5 3 1 1 1 1 1 2 3 3 4 4 4 5 5 5 5 5 5 5 4 4 4 2 2 3 3 3 3 4 5 5 5 5 5 6 5 4 5 4 3
1 1 1 3 1 1 4 5 6 1 0 0 0 1 1 1 2 3 3 3 4 4 4 4 4 4 4 4 4 4 4 3 3 4 3 3 3 4 5 5 5 5 5 5 5 4 5 5 4
2 2 3 3 2 2 4 4 4 4 4 2 2 1 1 1 2 3 3 3 3 3 4 4 4 4 4 4 4 4 4 4 3 3 4 4 4 4 5 5 5 5 5 5 4 4 5 5 5
2 2 2 2 2 3 3 6 4 5 5 4 4 2 1 1 2 2 2 2 3 3 3 4 5 4 4 4 4 4 4 4 4 3 4 4 4 5 5 5 5 6 6 5 5 5 5 5 5
1 2 2 2 2 2 2 7 2 3 3 3 3 2 1 1 1 2 2 2 3 4 4 4 4 4 4 4 4 4 4 4 4 4 5 4 5 5 5 5 5 5 6 5 5 6 6 6 6
Wind_Direction
336 338 44 55 54 52 351 285 291 334 347 7 42 114 130 122 138 164 10 116 116 132 144 146 145 142 137 132 133 130 127 123 122 119 117 117 116 116 115 112 111 110 109 107 104 100 96 93 89
329 350 46 56 80 73 287 285 302 291 208 98 45 67 77 58 48 93 98 124 126 132 134 141 139 139 137 134 134 137 133 127 123 118 117 118 117 117 114 112 111 113 109 106 104 102 99 96 92
341 42 71 71 102 168 231 295 277 321 33 78 57 46 70 52 75 149 153 133 120 122 122 134 135 139 139 137 136 140 137 134 131 124 119 118 114 111 113 111 111 111 111 108 106 105 102 99 94
37 45 56 78 151 215 234 288 302 348 25 48 87 67 50 15 238 153 119 124 118 114 114 130 135 141 142 142 142 141 142 137 135 128 123 121 117 113 108 105 104 107 107 106 105 107 105 101 93
55 72 72 75 235 253 266 297 330 29 3 27 80 96 43 358 51 103 118 123 127 119 113 129 134 139 143 147 148 142 141 140 137 133 129 126 122 117 112 111 107 108 104 102 104 109 109 101 91
59 69 106 191 242 280 301 326 21 37 19 34 83 98 41 25 73 109 116 114 119 125 118 124 135 137 139 142 141 142 138 144 145 142 137 135 131 127 123 118 115 113 116 112 100 91 92 97 96
102 105 159 179 218 303 330 341 60 44 44 16 114 97 27 32 74 105 102 102 101 109 112 110 122 133 139 137 134 135 135 136 147 145 136 134 134 129 123 122 126 129 129 133 118 95 78 58 45
112 113 143 176 182 265 325 351 38 54 49 31 74 105 215 238 111 101 97 96 99 99 109 115 113 114 121 128 137 138 139 141 134 138 134 132 132 131 127 130 138 153 160 158 148 125 63 358 347
83 94 170 191 182 239 340 17 2 19 67 50 40 37 19 105 111 107 103 97 111 113 110 119 123 121 121 128 138 141 142 138 130 133 139 132 122 124 134 167 177 175 177 179 198 242 293 333 329
87 141 197 198 192 179 28 33 0 42 35 28 22 22 61 100 111 112 116 129 146 156 145 126 147 150 149 153 137 141 137 132 128 127 142 142 142 153 157 208 209 216 226 243 264 280 304 326 326
112 157 174 332 345 43 55 33 31 81 41 6 359 40 95 104 110 119 127 142 164 172 163 172 168 158 166 168 159 157 148 142 153 157 164 163 155 161 172 203 250 255 255 261 283 294 300 288 280
107 81 84 23 27 33 40 38 48 62 7 344 43 110 117 118 130 149 151 162 147 132 175 164 180 172 186 172 170 170 168 178 191 196 180 170 185 204 208 211 226 225 227 231 244 254 269 271 270
96 79 54 44 47 49 54 42 69 20 353 24 63 82 102 112 110 73 47 41 83 204 235 211 175 170 178 176 181 171 182 196 206 210 203 190 198 221 220 221 221 222 219 223 236 245 256 264 269
134 89 35 21 31 41 55 24 45 345 4 44 62 75 85 78 53 40 29 19 3 318 283 252 214 208 185 187 195 197 193 194 187 199 219 210 211 222 231 228 228 230 225 225 226 236 246 256 262
98 76 20 1 4 352 51 20 14 340 38 52 52 58 56 45 38 29 4 359 346 353 1 340 269 252 218 211 208 211 208 199 207 233 237 232 223 231 235 230 232 236 231 231 235 242 244 256 263
73 77 8 337 14 353 83 316 355 4 60 51 38 41 43 35 29 18 12 11 8 16 17 354 359 4 299 257 232 167 126 166 186 311 305 287 270 261 245 260 253 250 240 235 239 244 251 256 260
78 153 199 322 10 28 91 272 343 11 55 49 32 29 32 26 20 11 10 10 14 22 20 11 9 9 353 3 38 70 75 85 50 25 346 311 306 295 264 264 288 286 256 244 248 250 245 257 263
173 155 155 189 4 69 93 296 337 4 46 40 24 19 24 20 0 0 10 14 16 23 28 28 23 17 17 28 49 51 51 29 26 20 358 353 334 338 302 283 306 320 314 295 280 267 259 257 270
124 125 134 188 241 86 122 295 323 348 15 18 21 16 13 360 357 12 17 22 24 26 28 24 24 16 31 27 11 23 14 8 16 12 358 353 353 346 331 313 322 331 303 296 301 294 284 276 280
116 118 110 50 26 98 89 307 308 351 1 13 19 6 0 357 7 14 15 22 26 24 19 20 19 21 27 20 353 28 50 47 37 22 11 6 1 348 335 321 304 305 299 315 324 322 307 291 285
106 168 179 199 355 38 47 322 313 327 13 34 35 16 13 10 357 4 9 13 20 19 12 10 14 20 21 24 33 36 50 42 31 11 5 4 4 4 354 333 309 301 283 291 299 302 285 289 286
239 212 181 168 128 304 92 274 287 284 313 340 357 8 3 0 4 10 11 10 11 4 4 13 15 23 22 36 44 43 36 19 3 5 359 1 8 8 4 354 336 322 308 297 291 292 292 289 289
227 204 145 150 141 84 54 213 278 297 279 281 297 340 350 359 8 15 12 5 7 4 6 12 19 26 23 32 49 53 28 4 11 21 11 360 358 5 4 355 345 334 327 319 308 297 289 281 283
215 66 70 53 80 236 216 200 266 243 235 253 270 359 11 9 11 14 15 16 17 12 11 15 24 23 18 24 30 39 26 14 17 10 4 358 353 355 2 352 347 343 339 331 321 312 306 297 293
50 86 50 7 343 251 217 214 249 255 238 215 215 278 1 11 13 15 13 13 14 14 11 12 22 18 12 20 23 21 15 15 15 0 355 353 350 348 353 353 351 345 342 339 338 329 321 313 303
326 130 148 189 224 277 289 239 257 269 260 161 172 174 29 24 17 16 7 7 11 12 10 10 17 16 9 16 15 15 16 13 6 358 352 351 345 340 347 352 352 349 346 344 339 335 328 322 310
110 138 129 123 83 300 268 282 293 250 336 41 109 55 7 0 360 0 2 7 8 9 10 6 7 12 10 11 12 13 12 13 8 1 357 353 353 348 353 354 351 350 348 345 342 340 336 333 326
87 128 102 111 132 271 286 263 248 241 238 235 232 240 274 330 350 350 354 0 1 2 4 6 9 11 10 13 12 9 5 3 4 10 8 359 356 354 353 352 350 349 345 345 343 336 335 335 333
63 73 90 109 146 168 264 270 229 219 216 216 229 236 241 269 320 334 342 350 353 0 13 16 13 14 15 15 14 14 6 5 10 12 3 356 352 352 351 347 346 345 343 343 342 336 334 336 331
162 161 145 152 232 214 241 272 297 220 210 198 216 230 247 258 300 316 336 359 4 1 3 8 10 12 9 7 11 12 9 8 10 6 1 358 356 355 352 351 351 347 344 343 339 333 334 332 329